Regional Weather Roundup
Issued by NWS Sterling, VA

Home | Current Version | Previous Version | Graphics & Text | Print | Product List | Glossary On
Versions: 1 2 3 4 5 6 7 8 9 10 11 12 13 14 15 16 17 18 19 20 21 22 23 24 25 26 27 28 29 30 31 32 33 34 35 36 37 38 39 40 41 42 43 44 45 46 47 48 49 50
000
ASUS41 KLWX 210410
RWRLWX

REGIONAL WEATHER ROUNDUP
NATIONAL WEATHER SERVICE BALTIMORE MD/WASHINGTON DC
1100 PM EST THU NOV 20 2014

Note: "FAIR" indicates few or no clouds below 12,000 feet
with no significant weather and/or obstructions to visibility.
 TC=TEMPERATURE CELSIUS

 * =Non NWS site. Station does not report precipitation (e.g. rain,
    snow, etc.), thunder, or fog.

DCZ001-MDZ009-015-VAZ040>042-051-053>054-210500-
WASHINGTON METRO

CITY           SKY/WX    TMP DP  RH WIND       PRES   REMARKS
WASHINGTON NAT CLEAR     39  12  33 NW21G26   30.09R WCI  29
DULLES         CLEAR     34  12  40 NW15      30.09R WCI  24
ANDREWS AFB    CLEAR     36  11  35 NW18      30.07R WCI  26
FT BELVOIR     CLEAR     38  13  35 NW14      30.09R
QUANTICO       CLEAR     36  18  48 N5        30.11R
COLLEGE PARK*  CLEAR     36  10  35 NW10G17   30.08R WCI  28
LEESBURG*      CLEAR     34  14  44 NW12G23   30.11R WCI  25
MANASSAS*      CLEAR     36  16  44 N7        30.10R
GAITHERSBURG*  CLEAR     32   9  37 NW12G18   30.12R WCI  23

$$

MDZ006>007-011-014-210500-
BALTIMORE METRO

CITY           SKY/WX    TMP DP  RH WIND       PRES   REMARKS
BWI AIRPORT    CLEAR     34  10  37 NW12      30.08R WCI  25
MD SCIENCE CTR   N/A     36   8  31 MISG      30.08R
MARTIN STATE   CLEAR     36  12  38 W20G29    30.10R WCI  25
ANNAPOLIS      CLEAR     38  16  40 NW14G20   30.07R
FORT MEADE*    CLEAR     34  10  37 NW8G17    30.11R WCI  27

$$

MDZ012-015-019>023-210500-
MARYLAND EASTERN SHORE

CITY           SKY/WX    TMP DP  RH WIND       PRES   REMARKS
OCEAN CITY     CLEAR     37  21  52 N7        30.07R
SALISBURY      CLEAR     38  20  48 NW8       30.07R
BAY BRIDGE AP*   N/A     37  14  38 NW16G22   30.07S WCI  28
CAMBRIDGE*     CLEAR     39  19  45 N7        30.07R
EASTON*        CLEAR     38  16  41 NW7       30.11R

$$

MDZ017>025-210500-
SOUTHERN MARYLAND

CITY           SKY/WX    TMP DP  RH WIND       PRES   REMARKS
PATUXENT RIVER CLEAR     40  17  39 NW10      30.08R
ST INIGOES     CLEAR     40  14  34 NW5       30.08R
LEONARDTOWN*   CLEAR     36  14  41 NW5       30.10R

$$

MDZ003>005-210500-
NORTH CENTRAL MARYLAND

CITY           SKY/WX    TMP DP  RH WIND       PRES   REMARKS
FREDERICK*     CLEAR     36   7  30 NW15      30.14R WCI  26
HAGERSTOWN APT MOCLDY    31   9  39 W15G26    30.09R WCI  20
WESTMINSTER*   PTCLDY    30  10  43 NW5       30.07R

$$

MDZ501>502-210500-
WESTERN MARYLAND

CITY           SKY/WX    TMP DP  RH WIND       PRES   REMARKS
OAKLAND*       CLOUDY    19  12  73 W14G22    29.99R WCI   6
CUMBERLAND*    PTCLDY    32  12  43 NW12G18   30.16R WCI  23

$$

VAZ025>031-210500-
SHENANDOAH VALLEY

CITY           SKY/WX    TMP DP  RH WIND       PRES   REMARKS
WINCHESTER*    CLEAR     32   3  29 NW16      30.10R WCI  21
FRONT ROYAL*   FAIR      32  12  43 W8        30.09R WCI  25
LURAY*         FAIR      37  12  35 W13G20    30.08R
NEW MARKET*    FAIR      33  10  37 CALM      30.09R
STAUNTON*      CLEAR     37  10  34 W10G18    30.09R
WAYNESBORO*    FAIR      35  12  39 W9        30.06R WCI  27

$$

WVZ021-048>050-054>055-210500-
EASTERN WEST VIRGINIA PANHANDLE

CITY           SKY/WX    TMP DP  RH WIND       PRES   REMARKS
MARTINSBURG    CLEAR     32   8  36 W18G26    30.11R WCI  20
PETERSBURG*    PTCLDY    32  10  39 W9G22     30.13R WCI  24

$$

VAZ036>039-050-210500-
CENTRAL FOOTHILLS

CITY           SKY/WX    TMP DP  RH WIND       PRES   REMARKS
CHARLOTTESVILL CLEAR     39  12  33 VRB3      30.07R
CULPEPER*      CLEAR     28  16  59 CALM      30.09R
ORANGE*        CLEAR     41  12  30 SW14G20   30.09R
GORDONSVILLE*  FAIR      40  10  29 CALM      30.07R
WARRENTON*     FAIR      25  21  84 CALM      30.08R

$$

VAZ055>057-210500-
NORTH AND CENTRAL PIEDMONT

CITY           SKY/WX    TMP DP  RH WIND       PRES   REMARKS
FREDERICKSBRG* CLEAR     32  22  67 CALM      30.09R
STAFFORD*      CLEAR     28  17  65 CALM      30.13R

$$

NCZ024-NYZ072-PAZ021-071-VAZ022-071-210500-
OTHER REGIONAL OBSERVATIONS

CITY           SKY/WX    TMP DP  RH WIND       PRES   REMARKS
NEW YORK CITY  CLEAR     33   8  35 VRB6      30.02R
PHILADELPHIA   CLEAR     33   9  36 NW15G24   30.08R WCI  23
PITTSBURGH     PTCLDY    22  13  68 W6        30.12R
ROANOKE        CLEAR     37  11  34 W6        30.13R
RICHMOND       CLEAR     36  23  59 CALM      30.08R
RALEIGH        CLEAR     39  28  64 CALM      30.13R

$$

ANZ530>537-210500-
MARINE OBSERVATIONS

STATION/POSITION TIME  TEMP    WIND        PRES
                       AIR SEA DIR/SP/G
                 (UTC) (F)     (DEG/KT/KT) (MB)
THOMAS PT LIGHT  0400   38 48  320/ 16/ 18 1019.2R
BALT KEY BRIDGE  0400   38     300/ 25/ 28 1017.6S
COVE POINT       0400   42     350/ 13/ 14 1018.1F
LEWISETTA        0400   43 47   10/  7/ 10 1018.2R
SOLOMONS ISLAND  0400      49                N/A
PINEY POINT      0400          360/  9/  9   N/A

$$



USA.gov is the U.S. government's official web portal to all federal, state and local government web resources and services.